AEROCUBE 14B (45116 NORAD) Tracking and Keplerian Element Data

This shows tracking and keplerian element data for the satellite.

Feedback or suggestion? Click here.




ElementValue
Catalog45116
NameAEROCUBE 14B
Epoch Orbit307
Epoch Day52.80476689
Epoch Year2020
RAAN206.8459
Inclination51.6417
Eccentricity0.0011532
Argument of Perigee4.6049
Mean Anonmoly355.5037
Mean Motion15.32929302
Decay Rate1.927E-05
L11 45116U 19071F 20052.80476689 .00001927 00000-0 71250-4 0 9990
L22 45116 51.6417 206.8459 0011532 4.6049 355.5037 15.32929302 3076

Live tracking and technical data element details for AEROCUBE 14B (NORAD 45116). AEROCUBE 14B can be tracked NOW for your location showing map with azimuth and elevation plus other details from your city location.

Track the satellite on the map from your city or location and see movement details for azimuth, elevation, latitude, longitude, range, height, and movement on the map or in text.







IsCatalogInMostPopularTable: catalog: 45116, numindb: 7
Update: records affected: 1



GetName: 45116 AEROCUBE 14B

Hit Count: updated at: Mon, 24 Feb 2020 17:47:47 GMT